Location: Narrabri
(30.3170°S, 149.7830°E)
Time: 09:41:00
(UTC+11:00)

Tiangong 1 - Pass Details

Date: 08 October 2017
Orbit: 292 x 319 km, 42.8° (Epoch: 23 October)

Event Time Altitude Azimuth Distance (km) Brightness Sun altitude
Exits shadow 05:57:16 11° 287° (WNW) 1,101 2.7 -8.0°
Maximum altitude 05:59:39 49° 211° (SSW) 404 1.0 -7.5°
Drops below altitude 10° 06:02:17 10° 133° (SE) 1,205 4.6 -7.0°
Sets 06:04:19 0° 127° (SE) 2,045 6.0 -6.5°
